Regional Weather Roundup
Issued by NWS

Home | Current Version | Previous Version | Graphics & Text | Print | Product List | Glossary On
Versions: 1 2 3 4 5 6 7 8 9 10 11 12 13 14 15 16 17 18 19 20 21 22 23 24 25 26 27 28 29 30 31 32 33 34 35 36 37 38 39 40 41 42 43 44 45 46 47 48 49 50
243
ASUS45 KSLC 231810
RWRUT

UTAH REGIONAL WEATHER ROUNDUP
NATIONAL WEATHER SERVICE SALT LAKE CITY UT
1100 AM MST THU FEB 23 2017

UTZ001>011-023>025-231900-

NORTHERN UTAH

CITY           SKY/WX    TMP DP  RH WIND       PRES   REMARKS
BRIGHAM CITY     N/A     32  21  64 NW5       29.76R WCI  27
DUGWAY         PTSUNNY   31  24  74 NW9       29.82R WCI  23
HILL AFB       FLURRIES  28  22  77 W20       29.75R WCI  15
LOGAN          CLOUDY    32  25  75 E3        29.73R
OGDEN          CLOUDY    29  23  78 W13G21    29.75R WCI  19
SALT LAKE CITY FLURRIES  31  22  69 NW13      29.79R WCI  21
TOOELE VALLEY  CLOUDY    32  28  86 E7        29.81R WCI  26
WENDOVER       PTSUNNY   36  12  38 W13       29.81R WCI  27
HEBER CITY     MIX PCPN  28  19  69 CALM      29.70R
WEST JORDAN    CLOUDY    31  31 100 CALM      29.79R

$$

UTZ011>015-024>027-231900-

CENTRAL/NORTHEAST UTAH

CITY           SKY/WX    TMP DP  RH WIND       PRES   REMARKS
PROVO AIRPORT  LGT SNOW  29  25  85 NW6       29.81R FOG     WCI  23
MOAB/CANYONLAN MOSUNNY   39  10  30 W20G29    29.71R WCI  29
DELTA          CLOUDY    27  23  86 SE13      29.83S WCI  16
PRICE          PTSUNNY   30  10  43 W7        29.67R WCI  23
RICHFIELD      PTSUNNY   30  16  55 CALM      29.83R
ROOSEVELT      CLOUDY    32  21  64 W13       29.65R WCI  22
VERNAL         CLOUDY    25  23  92 E8        29.64R WCI  16

$$

UTZ013>016-019>022-027-231900-

SOUTHERN UTAH

CITY           SKY/WX    TMP DP  RH WIND       PRES   REMARKS
BRYCE CANYON   SUNNY     22   6  50 NW16G26   29.74R WCI   8
CEDAR CITY     SUNNY     28  15  58 S5        29.84R WCI  23
MILFORD        SUNNY     26  15  63 SW13      29.84R WCI  15
ST GEORGE      MOCLDY    44  16  32 W9        29.92S
HANKSVILLE     SUNNY     41   7  24 W12G17    29.77S
KANAB          MOSUNNY   39   7  26 W15G24    29.89S WCI  31
BLANDING       PTSUNNY   35   6  30 SW20G25   29.80S WCI  24

$$

REGIONAL REPORTS     COLORADO/ARIZONA

CITY           SKY/WX    TMP DP  RH WIND       PRES   REMARKS
CRAIG, CO      LGT SNOW  25  17  72 W16       29.61R WCI  12
GRAND JUNCTION CLOUDY    38   5  25 W15G24    29.69R WCI  29
RIFLE, CO      CLOUDY    32  22  66 NW13G30   29.64R WCI  22
MONTROSE, CO   SUNNY     36   8  31 W15G28    29.69R WCI  27
CORTEZ, CO     MOSUNNY   37  11  34 SW17G29   29.73S WCI  27
COLORADO CITY    N/A     39  10  30 NW15      29.90R WCI  31
PAGE, AZ       SUNNY     42   5  21 W16G25    29.82S
GRAND CANYON   PTSUNNY   30  15  53 W14G24    29.83S WCI  19
KINGMAN, AZ    MOSUNNY   47  10  22 W10       29.94S
FLAGSTAFF, AZ  MOSUNNY   32  15  49 W9G17     29.83S WCI  24

$$

REGIONAL REPORTS    NEVADA/IDAHO/WYOMING

CITY           SKY/WX    TMP DP  RH WIND       PRES   REMARKS
LAS VEGAS, NV  MOSUNNY   50   9  19 NW12G22   29.95S
ELY, NY        CLOUDY    24  15  68 W12       29.84S WCI  13
ELKO, NV       CLOUDY    28  18  66 W9        29.90R WCI  19
POCATELLO, ID  CLOUDY    27  23  85 S20G26    29.72R WCI  13
BURLEY, ID     LGT SNOW  28  22  78 W22G33    29.76R VSB 1   WCI  14
FORT BRIDGER,  CLOUDY    23  20  90 W22       29.64R FOG     WCI   7
EVANSTON, WY   LGT SNOW  20  16  84 SW13      29.63R FOG     WCI   7
ROCK SPRINGS,  SNOW      21  17  84 NE25G37   29.53F VSB 1/4 WCI   4

$$




USA.gov is the U.S. government's official web portal to all federal, state and local government web resources and services.